Flag for U.S.A. Weather past 2 weeks in Greensboro, North Carolina, U.S.A.

Now
53 °F

Passing clouds.


Feels Like: 53 °F
Forecast: 49 / 74 °F
Wind: No wind

Location: Piedmont Triad International Airport

Current Time: Apr 22, 2015 at 12:23:56 AM

Latest Report: Apr 21, 2015 at 10:54 PM


Visibility: 10 mi

Pressure: 29.88 "Hg

Humidity: 47%

Dew point: 33 °F

Location of GreensboroLocation

Historic Weather in Greensboro — Graph

°F

Greensboro temperature yesterday

Maximum temperature yesterday: 69 °F (at 4:54 PM)
Minimum temperature yesterday: 49 °F (at 5:54 AM)
Average temperature yesterday: 60 °F

Past Weeks' High & Low Weather Summary

 TemperatureHumidityPressure
High83 °F (Apr 8, 2:54 PM)100% (Apr 8, 7:04 AM)30.37 "Hg (Apr 8, 7:04 AM)
Low47 °F (Apr 16, 7:54 AM)18% (Apr 11, 5:54 PM)29.58 "Hg (Apr 20, 6:54 PM)
Average64 °F73%30.05 "Hg
* Reported Apr 6 10:54 PM — Apr 21 10:54 PM, Greensboro, Weather by CustomWeather, © 2015

Note: Actual official high and low records may vary slightly from our data, if they occured in-between our weather recording intervals... More about our weather records

Advertising

Greensboro weather history for previous 24 hours

 ConditionsComfort  
Time TempWeatherWind HumidityBarometerVisibility
10:54 PM
Tue, Apr 21
53 °FPassing clouds.No wind47%29.88 "Hg10 mi
9:54 PM56 °FPassing clouds.7 mph37%29.89 "Hg10 mi
8:54 PM60 °FScattered clouds.6 mph31%29.86 "Hg10 mi
7:54 PM63 °FScattered clouds.12 mph28%29.83 "Hg10 mi
6:54 PM67 °FScattered clouds.12 mph29%29.81 "Hg10 mi
5:54 PM68 °FScattered clouds.14 mph28%29.80 "Hg10 mi
4:54 PM69 °FScattered clouds.15 mph26%29.80 "Hg10 mi
3:54 PM68 °FScattered clouds.14 mph30%29.80 "Hg10 mi
2:54 PM68 °FScattered clouds.10 mph31%29.82 "Hg10 mi
1:54 PM67 °FScattered clouds.13 mph37%29.84 "Hg10 mi
12:54 PM65 °FScattered clouds.12 mph39%29.86 "Hg10 mi
11:54 AM63 °FScattered clouds.14 mph40%29.88 "Hg10 mi
10:54 AM60 °FScattered clouds.14 mph41%29.89 "Hg10 mi
9:54 AM59 °FScattered clouds.13 mph44%29.88 "Hg10 mi
8:54 AM57 °FPassing clouds.8 mph51%29.86 "Hg10 mi
7:54 AM53 °FSunny.3 mph64%29.85 "Hg10 mi
6:54 AM50 °FClear.7 mph66%29.82 "Hg10 mi
5:54 AM49 °FClear.5 mph71%29.80 "Hg10 mi
4:54 AM53 °FClear.8 mph61%29.78 "Hg10 mi
3:54 AM56 °FPassing clouds.17 mph58%29.76 "Hg10 mi
2:54 AM60 °FPassing clouds.16 mph65%29.73 "Hg10 mi
1:54 AM61 °FPassing clouds.13 mph70%29.69 "Hg10 mi
12:54 AM61 °FPassing clouds.8 mph87%29.69 "Hg10 mi
Weather by CustomWeather, © 2015

See weather overviewHow to use our weather pages